Location: Alberta Star Party
(51.6612°N, 112.9089°W)
Time: 07:50:43
(UTC-06:00)

Amateur Radio Satellites - All Passes

Search period start: 19 September 2014 07:20
Search period end: 20 September 2014 07:20
Location: Alberta Star Party, 51.6612°N, 112.9089°W

Satellite Date Start Highest point End Downlink Frequencies (MHz)
Time Altitude Azimuth
UOSAT-12 19 Sep 07:20:50 07:24:46 25° 24° (NNE) 07:28:41 437.025 FM, 437.400 FM
STRAND 1 19 Sep 07:52:33 07:57:28 49° 260° (W) 08:02:25 ?
KITSAT 1 19 Sep 07:55:03 07:56:49 11° 265° (W) 07:58:36 435.175 FM
JAS-2 19 Sep 08:07:33 08:13:18 70° 289° (WNW) 08:19:47 435.800 - 435.900 CW/SSB, 435.910 FM
RS-15 19 Sep 08:24:35 08:35:09 50° 336° (NNW) 08:45:50 29.354 - 29.394 USB, Beacon 29.352 USB
ISS 19 Sep 08:25:24 08:28:43 64° 197° (SSW) 08:32:01 145.800 FM
MaSat-1 19 Sep 08:27:02 08:30:12 17° 104° (ESE) 08:33:20 437.345 MHz
Hamsat 19 Sep 08:29:16 08:33:10 35° 294° (WNW) 08:37:01 145.90 MHz
HO-68 19 Sep 08:41:27 08:42:55 11° 79° (E) 08:44:23 435.675 MHz FM
SO-67 19 Sep 08:43:20 08:46:48 66° 102° (ESE) 08:50:14 435.3500 MHz FM
UOSAT-12 19 Sep 09:00:52 09:05:39 77° 46° (NE) 09:10:21 437.025 FM, 437.400 FM
SO-50 19 Sep 09:01:52 09:05:14 19° 247° (WSW) 09:08:37 436.795 FM
AO-7 19 Sep 09:08:59 09:14:44 21° 323° (NW) 09:20:28 29.400 - 29.500 MHz
JAS-2 19 Sep 09:54:09 09:57:37 17° 309° (NW) 10:01:18 435.800 - 435.900 CW/SSB, 435.910 FM
MaSat-1 19 Sep 10:01:21 10:06:24 90° 122° (ESE) 10:11:16 437.345 MHz
Oscar 11 19 Sep 10:02:14 10:04:00 12° 86° (E) 10:05:45 145.825 FM, Beacon 2401.500 USB
ISS 19 Sep 10:02:32 10:05:01 20° 216° (SW) 10:07:30 145.800 FM
UKube-1 19 Sep 10:17:24 10:20:45 21° 92° (E) 10:24:04 145.840 MHz, 145.915 MHz
SO-67 19 Sep 10:17:45 10:19:23 13° 300° (WNW) 10:21:01 435.3500 MHz FM
HO-68 19 Sep 10:25:23 10:32:23 52° 101° (E) 10:39:22 435.675 MHz FM
RS-15 19 Sep 10:40:02 10:50:20 43° 9° (N) 11:00:51 29.354 - 29.394 USB, Beacon 29.352 USB
UOSAT-12 19 Sep 10:41:49 10:45:19 21° 246° (WSW) 10:48:47 437.025 FM, 437.400 FM
AO-7 19 Sep 11:03:17 11:04:27 10° 350° (N) 11:05:36 29.400 - 29.500 MHz
FUNcube-1 19 Sep 11:25:26 11:29:42 35° 95° (E) 11:33:54 145.950 - 145.970 MHz USB
Oscar 11 19 Sep 11:36:28 11:40:52 89° 104° (ESE) 11:45:13 145.825 FM, Beacon 2401.500 USB
MaSat-1 19 Sep 11:39:49 11:43:46 23° 322° (NW) 11:47:33 437.345 MHz
PCSat 19 Sep 11:52:18 11:53:57 11° 102° (ESE) 11:55:35 145.825 MHz
UKube-1 19 Sep 11:53:00 11:57:15 52° 291° (WNW) 12:01:29 145.840 MHz, 145.915 MHz
Oscar 16 19 Sep 12:03:04 12:05:26 13° 49° (NE) 12:07:49 437.025 USB, Beacon 2401.1428
HO-68 19 Sep 12:13:21 12:20:01 43° 302° (WNW) 12:26:40 435.675 MHz FM
JAS-1B 19 Sep 12:16:15 12:20:55 18° 47° (NE) 12:25:11 435.800 - 435.900 CW/SSB
ITAMSAT 1 19 Sep 12:45:46 12:48:17 14° 49° (NE) 12:50:48 435.822 SSB
Uribyol 2 19 Sep 12:49:32 12:52:27 15° 51° (NE) 12:55:22 436.500 FM
AO-7 19 Sep 12:50:51 12:53:37 12° 18° (NNE) 12:56:24 29.400 - 29.500 MHz
RS-15 19 Sep 12:53:42 13:04:44 71° 41° (NE) 13:16:09 29.354 - 29.394 USB, Beacon 29.352 USB
Oscar 19 19 Sep 13:00:41 13:05:13 31° 61° (ENE) 13:09:46 437.125 CW, 437.150 USB
FUNcube-1 19 Sep 13:01:52 13:06:05 35° 295° (WNW) 13:10:16 145.950 - 145.970 MHz USB
Sapphire 19 Sep 13:04:24 13:09:21 38° 115° (ESE) 13:14:20 437.095 MHz 1200 baud AX-25 AFSK
Oscar 11 19 Sep 13:14:01 13:16:26 15° 304° (NW) 13:18:51 145.825 FM, Beacon 2401.500 USB
AO-27 19 Sep 13:18:48 13:22:48 23° 57° (ENE) 13:26:49 436.795 MHz FM
PCSat 19 Sep 13:30:57 13:36:17 61° 121° (ESE) 13:41:39 145.825 MHz
Oscar 16 19 Sep 13:38:43 13:43:49 61° 69° (ENE) 13:48:58 437.025 USB, Beacon 2401.1428
AO-Echo 19 Sep 13:54:03 13:58:27 40° 66° (ENE) 14:02:50 ?
JAS-1B 19 Sep 14:02:27 14:10:32 62° 68° (ENE) 14:17:18 435.800 - 435.900 CW/SSB
HO-68 19 Sep 14:02:40 14:06:00 14° 325° (NW) 14:09:19 435.675 MHz FM
Gurwin Techsat 1B 19 Sep 14:09:41 14:14:13 30° 60° (ENE) 14:18:45 435.225 FM
ITAMSAT 1 19 Sep 14:21:45 14:26:51 64° 70° (ENE) 14:31:59 435.822 SSB
Uribyol 2 19 Sep 14:25:56 14:31:05 72° 71° (ENE) 14:36:17 436.500 FM
AO-7 19 Sep 14:37:04 14:43:43 28° 44° (NE) 14:50:23 29.400 - 29.500 MHz
Oscar 19 19 Sep 14:39:22 14:44:24 48° 261° (W) 14:49:28 437.125 CW, 437.150 USB
TMSAT-1 19 Sep 14:46:17 14:51:13 42° 65° (ENE) 14:56:11 436.925 FM
Sapphire 19 Sep 14:47:26 14:52:42 50° 316° (NW) 14:58:00 437.095 MHz 1200 baud AX-25 AFSK
AO-27 19 Sep 14:56:43 15:01:52 70° 257° (WSW) 15:07:05 436.795 MHz FM
Uosat F 19 Sep 15:05:53 15:08:49 16° 52° (NE) 15:11:44 435.120 FM
RS-15 19 Sep 15:06:25 15:16:42 47° 246° (WSW) 15:27:22 29.354 - 29.394 USB, Beacon 29.352 USB
PCSat 19 Sep 15:15:05 15:20:03 35° 323° (NW) 15:25:03 145.825 MHz
Oscar 16 19 Sep 15:19:26 15:23:35 24° 269° (W) 15:27:46 437.025 USB, Beacon 2401.1428
AO-Echo 19 Sep 15:33:11 15:37:21 30° 265° (W) 15:41:31 ?
Gurwin Techsat 1B 19 Sep 15:48:46 15:53:57 53° 260° (W) 15:59:10 435.225 FM
JAS-1B 19 Sep 15:54:00 16:01:27 35° 265° (W) 16:07:52 435.800 - 435.900 CW/SSB
ITAMSAT 1 19 Sep 16:02:47 16:06:48 23° 269° (W) 16:10:51 435.822 SSB
Uribyol 2 19 Sep 16:07:23 16:11:08 20° 271° (W) 16:14:54 436.500 FM
TMSAT-1 19 Sep 16:26:24 16:31:14 36° 264° (W) 16:36:07 436.925 FM
AO-7 19 Sep 16:27:13 16:35:32 83° 67° (ENE) 16:43:52 29.400 - 29.500 MHz
Sapphire 19 Sep 16:33:27 16:37:23 20° 340° (NNW) 16:41:21 437.095 MHz 1200 baud AX-25 AFSK
MaSat-1 19 Sep 16:36:43 16:39:44 18° 33° (NNE) 16:42:29 437.345 MHz
AO-27 19 Sep 16:40:40 16:42:23 12° 276° (W) 16:44:06 436.795 MHz FM
Uosat F 19 Sep 16:41:51 16:46:51 78° 72° (ENE) 16:51:53 435.120 FM
JAS-2 19 Sep 16:43:20 16:46:47 18° 53° (NE) 16:50:16 435.800 - 435.900 CW/SSB, 435.910 FM
PCSat 19 Sep 17:01:32 17:05:04 17° 348° (NNW) 17:08:38 145.825 MHz
RS-15 19 Sep 17:24:36 17:25:56 10° 271° (W) 17:27:17 29.354 - 29.394 USB, Beacon 29.352 USB
OPAL 19 Sep 17:38:09 17:42:26 25° 95° (E) 17:46:39 ?
Saudisat 1A 19 Sep 17:47:08 17:50:42 25° 117° (ESE) 17:54:18 436.775 MHz
Hamsat 19 Sep 17:51:35 17:55:43 43° 69° (ENE) 17:59:51 145.90 MHz
MaSat-1 19 Sep 18:13:02 18:17:12 89° 246° (WSW) 18:20:44 437.345 MHz
Sapphire 19 Sep 18:19:33 18:22:55 16° 7° (N) 18:26:16 437.095 MHz 1200 baud AX-25 AFSK
AO-7 19 Sep 18:22:26 18:29:16 28° 269° (W) 18:36:09 29.400 - 29.500 MHz
Uosat F 19 Sep 18:22:57 18:26:15 18° 271° (W) 18:29:34 435.120 FM
JAS-2 19 Sep 18:26:03 18:31:16 86° 255° (WSW) 18:36:33 435.800 - 435.900 CW/SSB, 435.910 FM
KITSAT 1 19 Sep 18:39:26 18:43:03 14° 97° (E) 18:46:41 435.175 FM
PCSat 19 Sep 18:46:56 18:50:37 18° 15° (NNE) 18:54:18 145.825 MHz
HO-68 19 Sep 19:14:54 19:19:48 20° 44° (NE) 19:24:42 435.675 MHz FM
OPAL 19 Sep 19:16:34 19:21:40 58° 294° (WNW) 19:26:42 ?
SO-67 19 Sep 19:21:13 19:24:35 51° 72° (ENE) 19:27:58 435.3500 MHz FM
Saudisat 1A 19 Sep 19:25:37 19:29:59 61° 317° (NW) 19:34:23 436.775 MHz
Hamsat 19 Sep 19:28:13 19:31:51 25° 267° (W) 19:35:30 145.90 MHz
MaSat-1 19 Sep 19:52:31 19:52:59 10° 261° (W) 19:53:27 437.345 MHz
STRAND 1 19 Sep 19:57:26 20:02:13 38° 97° (E) 20:07:00 ?
Sapphire 19 Sep 20:03:24 20:08:08 29° 32° (NNE) 20:12:51 437.095 MHz 1200 baud AX-25 AFSK
JAS-2 19 Sep 20:14:51 20:17:21 13° 275° (W) 20:19:52 435.800 - 435.900 CW/SSB, 435.910 FM
KITSAT 1 19 Sep 20:28:53 20:36:43 57° 119° (ESE) 20:44:36 435.175 FM
PCSat 19 Sep 20:30:25 20:35:32 40° 39° (NE) 20:40:38 145.825 MHz
AO-40 19 Sep 20:40:22 01:46:52 29° 185° (S) 06:46:19 Beacon 2401.320
SO-67 19 Sep 20:55:59 20:57:55 14° 270° (W) 20:59:52 435.3500 MHz FM
OPAL 19 Sep 20:57:08 20:59:33 13° 315° (NW) 21:01:58 ?
HO-68 19 Sep 20:59:17 21:06:21 68° 66° (ENE) 21:13:27 435.675 MHz FM
Oscar 11 19 Sep 21:01:54 21:05:08 21° 60° (ENE) 21:08:22 145.825 FM, Beacon 2401.500 USB
Saudisat 1A 19 Sep 21:07:02 21:10:23 21° 340° (NNW) 21:13:46 436.775 MHz
UKube-1 19 Sep 21:17:50 21:21:49 37° 65° (ENE) 21:25:49 145.840 MHz, 145.915 MHz
STRAND 1 19 Sep 21:36:43 21:41:26 38° 296° (WNW) 21:46:09 ?
Sapphire 19 Sep 21:46:42 21:52:11 83° 235° (SW) 21:57:37 437.095 MHz 1200 baud AX-25 AFSK
PCSat 19 Sep 22:13:53 22:19:09 52° 241° (WSW) 22:24:23 145.825 MHz
KITSAT 1 19 Sep 22:24:26 22:32:19 53° 323° (NW) 22:40:15 435.175 FM
FUNcube-1 19 Sep 22:26:52 22:31:11 52° 69° (ENE) 22:35:37 145.950 - 145.970 MHz USB
Oscar 11 19 Sep 22:36:38 22:40:57 60° 259° (W) 22:45:18 145.825 FM, Beacon 2401.500 USB
HO-68 19 Sep 22:48:24 22:54:36 31° 267° (W) 23:00:51 435.675 MHz FM
Saudisat 1A 19 Sep 22:48:48 22:51:31 16° 4° (N) 22:54:13 436.775 MHz
UKube-1 19 Sep 22:54:16 22:58:05 30° 264° (W) 23:01:56 145.840 MHz, 145.915 MHz
SO-50 19 Sep 23:20:40 23:24:54 40° 122° (ESE) 23:29:14 436.795 FM
Sapphire 19 Sep 23:31:29 23:34:49 17° 255° (WSW) 23:38:07 437.095 MHz 1200 baud AX-25 AFSK
FUNcube-1 20 Sep 00:04:24 00:07:53 22° 269° (W) 00:11:28 145.950 - 145.970 MHz USB
KITSAT 1 20 Sep 00:22:40 00:29:38 30° 351° (N) 00:36:37 435.175 FM
Oscar 10/S400 20 Sep 00:26:40 01:10:56 40° 203° (SSW) 06:53:06 145.825 - 145.975 CW/USB, Beacon 145.810 USB
Saudisat 1A 20 Sep 00:28:41 00:32:29 27° 28° (NNE) 00:36:16 436.775 MHz
UOSAT-12 20 Sep 00:57:01 01:01:13 34° 120° (ESE) 01:05:30 437.025 FM, 437.400 FM
SO-50 20 Sep 01:01:08 01:05:29 43° 323° (NW) 01:09:58 436.795 FM
Oscar 16 20 Sep 01:46:24 01:49:08 14° 85° (E) 01:51:51 437.025 USB, Beacon 2401.1428
Saudisat 1A 20 Sep 02:08:06 02:12:33 81° 229° (SW) 02:16:58 436.775 MHz
KITSAT 1 20 Sep 02:20:15 02:27:31 34° 20° (NNE) 02:34:46 435.175 FM
ITAMSAT 1 20 Sep 02:30:23 02:33:22 15° 86° (E) 02:36:20 435.822 SSB
Uribyol 2 20 Sep 02:34:11 02:37:36 17° 88° (E) 02:41:00 436.500 FM
UOSAT-12 20 Sep 02:36:43 02:41:16 50° 321° (NW) 02:45:55 437.025 FM, 437.400 FM
SO-50 20 Sep 02:43:51 02:47:12 19° 347° (NNW) 02:50:35 436.795 FM
Oscar 19 20 Sep 02:45:19 02:50:13 41° 97° (E) 02:55:03 437.125 CW, 437.150 USB
TMSAT-1 20 Sep 02:59:34 03:00:11 10° 82° (E) 03:00:49 436.925 FM
AO-27 20 Sep 03:04:30 03:09:00 29° 94° (E) 03:13:29 436.795 MHz FM
OPAL 20 Sep 03:21:37 03:25:00 18° 50° (NE) 03:28:24 ?
Oscar 16 20 Sep 03:24:05 03:29:20 84° 105° (ESE) 03:34:30 437.025 USB, Beacon 2401.1428
RS-15 20 Sep 03:28:51 03:35:46 19° 98° (E) 03:42:38 29.354 - 29.394 USB, Beacon 29.352 USB
JAS-1B 20 Sep 03:32:17 03:38:00 50° 99° (E) 03:43:30 435.800 - 435.900 CW/SSB
AO-Echo 20 Sep 03:33:39 03:38:23 55° 101° (E) 03:43:14 ?
Saudisat 1A 20 Sep 03:49:11 03:51:27 14° 249° (WSW) 03:53:42 436.775 MHz
Gurwin Techsat 1B 20 Sep 03:59:18 04:04:21 41° 97° (E) 04:09:21 435.225 FM
ITAMSAT 1 20 Sep 04:08:23 04:13:39 87° 106° (ESE) 04:18:53 435.822 SSB
Uribyol 2 20 Sep 04:12:30 04:17:45 84° 287° (WNW) 04:22:59 436.500 FM
KITSAT 1 20 Sep 04:16:10 04:24:17 73° 46° (NE) 04:32:22 435.175 FM
UOSAT-12 20 Sep 04:18:55 04:22:28 21° 344° (NNW) 04:26:02 437.025 FM, 437.400 FM
ISS 20 Sep 04:23:35 04:26:39 35° 152° (SSE) 04:29:44 145.800 FM
AO-7 20 Sep 04:23:47 04:29:23 19° 86° (E) 04:34:56 29.400 - 29.500 MHz
Oscar 19 20 Sep 04:24:49 04:29:32 36° 297° (WNW) 04:34:12 437.125 CW, 437.150 USB
SO-50 20 Sep 04:26:04 04:29:24 19° 12° (NNE) 04:32:47 436.795 FM
TMSAT-1 20 Sep 04:35:57 04:41:14 62° 102° (ESE) 04:46:29 436.925 FM
AO-27 20 Sep 04:43:44 04:48:47 51° 293° (WNW) 04:53:49 436.795 MHz FM
Uosat F 20 Sep 04:45:14 04:48:19 16° 88° (E) 04:51:24 435.120 FM
OPAL 20 Sep 04:57:57 05:03:09 80° 70° (ENE) 05:08:25 ?
Oscar 16 20 Sep 05:04:25 05:08:05 20° 305° (NW) 05:11:45 437.025 USB, Beacon 2401.1428
AO-Echo 20 Sep 05:13:00 05:16:55 26° 300° (WNW) 05:20:54 ?
JAS-1B 20 Sep 05:23:24 05:28:32 31° 302° (WNW) 05:33:27 435.800 - 435.900 CW/SSB
RS-15 20 Sep 05:35:04 05:45:53 68° 122° (ESE) 05:56:41 29.354 - 29.394 USB, Beacon 29.352 USB
Gurwin Techsat 1B 20 Sep 05:39:26 05:44:17 37° 297° (WNW) 05:49:07 435.225 FM
STRAND 1 20 Sep 05:41:53 05:45:18 19° 54° (NE) 05:48:44 ?
ITAMSAT 1 20 Sep 05:48:55 05:52:32 19° 306° (NW) 05:56:09 435.822 SSB
Uribyol 2 20 Sep 05:53:10 05:56:31 18° 307° (NW) 05:59:53 436.500 FM
ISS 20 Sep 05:59:50 06:03:11 85° 171° (S) 06:06:32 145.800 FM
UOSAT-12 20 Sep 06:00:58 06:04:14 18° 8° (N) 06:07:30 437.025 FM, 437.400 FM
SO-50 20 Sep 06:06:41 06:11:10 40° 35° (NE) 06:15:43 436.795 FM
KITSAT 1 20 Sep 06:12:03 06:19:12 36° 249° (WSW) 06:26:19 435.175 FM
AO-7 20 Sep 06:15:18 06:23:38 75° 108° (ESE) 06:31:55 29.400 - 29.500 MHz
TMSAT-1 20 Sep 06:16:28 06:20:49 26° 301° (WNW) 06:25:08 436.925 FM
Uosat F 20 Sep 06:22:44 06:27:47 85° 287° (WNW) 06:32:49 435.120 FM
AO-27 20 Sep 06:25:34 06:27:11 11° 314° (NW) 06:28:49 436.795 MHz FM
OPAL 20 Sep 06:39:06 06:42:39 18° 269° (W) 06:46:15 ?
Hamsat 20 Sep 07:07:42 07:11:46 41° 97° (E) 07:15:46 145.90 MHz
